Station Historical Data
Daily Summary for June 23, 2017 Units:  English    Metric   Both
« Previous Day
Next Day »
Daily Weekly Monthly Yearly Custom
  High: Low: Average:
Temperature: 77.9 °F 68.8 °F 73.3 °F
Dew Point: 70.4 °F 66.6 °F 68 °F
Humidity: 93% 72% 84%
Wind Speed: 15.0mph 0.0mph 4.3mph
Wind Gust: 20.0mph - -
Wind- - SW
Pressure: 29.77 in 29.50 in -
Precipitation: 0.00 in    
Historical Graphs
 
 
Tabular Data for June 23, 2017
Time Temperature Dew Point Pressure Wind Wind Speed Wind Gust Humidity Rainfall Rate (Hourly)
00:04 77.7 °F 69.1 °F 29.77 in SSW 5.0 mph 12.0 mph 75% 0.00 in
00:09 77.7 °F 69.1 °F 29.77 in SSW 5.0 mph 12.0 mph 75% 0.00 in
00:14 77.8 °F 68.8 °F 29.77 in SSW 6.0 mph 13.0 mph 74% 0.00 in
00:19 77.8 °F 68.8 °F 29.77 in SSW 7.0 mph 15.0 mph 74% 0.00 in
00:24 77.9 °F 68.9 °F 29.77 in SSW 6.0 mph 15.0 mph 74% 0.00 in
00:29 77.8 °F 68.8 °F 29.76 in SSW 7.0 mph 12.0 mph 74% 0.00 in
00:34 77.5 °F 68.9 °F 29.76 in SW 6.0 mph 12.0 mph 75% 0.00 in
00:39 77.2 °F 68.7 °F 29.76 in South 3.0 mph 11.0 mph 75% 0.00 in
00:44 77.1 °F 68.6 °F 29.75 in South 6.0 mph 10.0 mph 75% 0.00 in
00:49 77.0 °F 68.5 °F 29.75 in WSW 4.0 mph 9.0 mph 75% 0.00 in
00:54 77.0 °F 68.5 °F 29.75 in SSW 4.0 mph 10.0 mph 75% 0.00 in
00:59 77.0 °F 68.5 °F 29.75 in SSW 3.0 mph 11.0 mph 75% 0.00 in
01:04 76.9 °F 68.4 °F 29.75 in SW 4.0 mph 13.0 mph 75% 0.00 in
01:09 76.7 °F 68.2 °F 29.75 in SW 4.0 mph 15.0 mph 75% 0.00 in
01:14 76.6 °F 68.1 °F 29.75 in SW 7.0 mph 11.0 mph 75% 0.00 in
01:19 76.6 °F 68.1 °F 29.75 in SSW 6.0 mph 11.0 mph 75% 0.00 in
01:24 76.6 °F 68.1 °F 29.75 in WSW 5.0 mph 11.0 mph 75% 0.00 in
01:29 76.6 °F 68.1 °F 29.75 in SW 6.0 mph 12.0 mph 75% 0.00 in
01:34 76.6 °F 68.1 °F 29.75 in SW 5.0 mph 12.0 mph 75% 0.00 in
01:39 76.5 °F 68.0 °F 29.75 in WSW 5.0 mph 10.0 mph 75% 0.00 in
01:44 76.4 °F 67.9 °F 29.75 in WSW 4.0 mph 10.0 mph 75% 0.00 in
01:49 76.0 °F 67.9 °F 29.75 in WSW 4.0 mph 10.0 mph 76% 0.00 in
01:54 75.5 °F 67.8 °F 29.74 in WSW 3.0 mph 10.0 mph 77% 0.00 in
01:59 75.2 °F 67.5 °F 29.74 in WSW 3.0 mph 8.0 mph 77% 0.00 in
02:04 74.9 °F 67.6 °F 29.74 in SW 2.0 mph 8.0 mph 78% 0.00 in
02:09 74.8 °F 67.5 °F 29.74 in SSW 2.0 mph 11.0 mph 78% 0.00 in
02:14 74.8 °F 67.5 °F 29.74 in WSW 6.0 mph 9.0 mph 78% 0.00 in
02:19 74.8 °F 67.5 °F 29.73 in West 4.0 mph 9.0 mph 78% 0.00 in
02:24 74.8 °F 67.5 °F 29.73 in SW 3.0 mph 5.0 mph 78% 0.00 in
02:29 74.8 °F 67.5 °F 29.73 in SW 4.0 mph 7.0 mph 78% 0.00 in
02:34 74.7 °F 67.4 °F 29.73 in SW 3.0 mph 7.0 mph 78% 0.00 in
02:39 74.7 °F 67.4 °F 29.72 in SW 3.0 mph 7.0 mph 78% 0.00 in
02:44 74.5 °F 67.2 °F 29.72 in SW 3.0 mph 7.0 mph 78% 0.00 in
02:49 74.3 °F 67.4 °F 29.72 in SW 2.0 mph 5.0 mph 79% 0.00 in
02:54 74.3 °F 67.4 °F 29.72 in SW 2.0 mph 5.0 mph 79% 0.00 in
02:59 74.2 °F 67.3 °F 29.72 in SW 2.0 mph 5.0 mph 79% 0.00 in
03:04 74.1 °F 67.2 °F 29.72 in Calm   4.0 mph 79% 0.00 in
03:09 74.0 °F 67.4 °F 29.72 in SW 3.0 mph 4.0 mph 80% 0.00 in
03:14 74.0 °F 67.4 °F 29.72 in SSW 4.0 mph 4.0 mph 80% 0.00 in
03:19 74.0 °F 67.4 °F 29.72 in SW 1.0 mph 6.0 mph 80% 0.00 in
03:24 74.2 °F 67.6 °F 29.72 in South 4.0 mph 7.0 mph 80% 0.00 in
03:29 74.3 °F 67.7 °F 29.72 in SW 5.0 mph 6.0 mph 80% 0.00 in
03:34 74.5 °F 67.9 °F 29.72 in SW 3.0 mph 7.0 mph 80% 0.00 in
03:39 74.9 °F 67.9 °F 29.72 in SW 4.0 mph 8.0 mph 79% 0.00 in
03:44 75.2 °F 67.9 °F 29.71 in SW 5.0 mph 15.0 mph 78% 0.00 in
03:49 75.5 °F 68.2 °F 29.71 in SW 6.0 mph 15.0 mph 78% 0.00 in
03:54 75.6 °F 67.9 °F 29.71 in SW 5.0 mph 13.0 mph 77% 0.00 in
03:59 75.7 °F 68.4 °F 29.71 in SW 5.0 mph 12.0 mph 78% 0.00 in
04:04 75.6 °F 67.9 °F 29.71 in SW 5.0 mph 12.0 mph 77% 0.00 in
04:09 75.7 °F 68.0 °F 29.71 in SW 4.0 mph 20.0 mph 77% 0.00 in
04:14 75.7 °F 68.0 °F 29.71 in WSW 2.0 mph 13.0 mph 77% 0.00 in
04:19 75.7 °F 68.0 °F 29.71 in SW 7.0 mph 11.0 mph 77% 0.00 in
04:24 75.7 °F 68.0 °F 29.71 in SSW 3.0 mph 9.0 mph 77% 0.00 in
04:29 75.7 °F 68.0 °F 29.71 in SW 5.0 mph 9.0 mph 77% 0.00 in
04:34 75.7 °F 68.0 °F 29.71 in SW 5.0 mph 11.0 mph 77% 0.00 in
04:39 75.7 °F 68.0 °F 29.70 in West 3.0 mph 12.0 mph 77% 0.00 in
04:44 75.6 °F 67.9 °F 29.70 in WSW 3.0 mph 10.0 mph 77% 0.00 in
04:49 75.6 °F 67.9 °F 29.70 in South 3.0 mph 10.0 mph 77% 0.00 in
04:54 75.6 °F 67.9 °F 29.70 in SSW 3.0 mph 11.0 mph 77% 0.00 in
04:59 75.6 °F 67.9 °F 29.70 in SW 5.0 mph 11.0 mph 77% 0.00 in
05:04 75.6 °F 67.5 °F 29.69 in SW 5.0 mph 11.0 mph 76% 0.00 in
05:09 75.5 °F 67.4 °F 29.69 in SW 5.0 mph 10.0 mph 76% 0.00 in
05:14 75.5 °F 67.8 °F 29.69 in SW 5.0 mph 10.0 mph 77% 0.00 in
05:19 75.4 °F 67.7 °F 29.69 in SW 5.0 mph 11.0 mph 77% 0.00 in
05:24 75.4 °F 67.3 °F 29.69 in SW 11.0 mph 11.0 mph 76% 0.00 in
05:29 75.3 °F 67.6 °F 29.69 in SW 6.0 mph 13.0 mph 77% 0.00 in
05:34 75.2 °F 67.1 °F 29.69 in SW 5.0 mph 13.0 mph 76% 0.00 in
05:39 75.1 °F 67.4 °F 29.69 in WSW 3.0 mph 9.0 mph 77% 0.00 in
05:44 75.1 °F 67.4 °F 29.69 in SSW 1.0 mph 9.0 mph 77% 0.00 in
05:49 75.1 °F 67.4 °F 29.69 in SW 8.0 mph 10.0 mph 77% 0.00 in
05:54 75.1 °F 67.0 °F 29.69 in WSW 5.0 mph 12.0 mph 76% 0.00 in
05:59 75.0 °F 67.3 °F 29.68 in SW 5.0 mph 10.0 mph 77% 0.00 in
06:04 75.0 °F 67.3 °F 29.68 in SW 5.0 mph 11.0 mph 77% 0.00 in
06:09 74.9 °F 67.2 °F 29.68 in SW 5.0 mph 15.0 mph 77% 0.00 in
06:14 74.9 °F 67.2 °F 29.68 in SW 5.0 mph 15.0 mph 77% 0.00 in
06:19 74.8 °F 67.1 °F 29.68 in SW 4.0 mph 9.0 mph 77% 0.00 in
06:24 74.6 °F 66.9 °F 29.68 in SSW 2.0 mph 8.0 mph 77% 0.00 in
06:29 74.4 °F 67.1 °F 29.68 in WSW 4.0 mph 7.0 mph 78% 0.00 in
06:34 74.5 °F 67.2 °F 29.68 in SW 3.0 mph 7.0 mph 78% 0.00 in
06:39 74.7 °F 67.0 °F 29.68 in SW 3.0 mph 8.0 mph 77% 0.00 in
06:44 74.9 °F 67.2 °F 29.68 in SW 5.0 mph 8.0 mph 77% 0.00 in
06:49 74.9 °F 67.2 °F 29.68 in WSW 2.0 mph 9.0 mph 77% 0.00 in
06:54 74.8 °F 67.1 °F 29.68 in SW 3.0 mph 8.0 mph 77% 0.00 in
06:59 74.9 °F 67.2 °F 29.68 in SSW 7.0 mph 7.0 mph 77% 0.00 in
07:04 74.9 °F 67.2 °F 29.67 in West 3.0 mph 11.0 mph 77% 0.00 in
07:09 74.9 °F 67.2 °F 29.67 in SSW 4.0 mph 14.0 mph 77% 0.00 in
07:14 74.8 °F 67.1 °F 29.67 in SW 4.0 mph 14.0 mph 77% 0.00 in
07:19 74.9 °F 67.2 °F 29.67 in SW 3.0 mph 7.0 mph 77% 0.00 in
07:24 75.0 °F 67.3 °F 29.67 in SW 3.0 mph 7.0 mph 77% 0.00 in
07:29 75.1 °F 67.4 °F 29.67 in SSW 3.0 mph 10.0 mph 77% 0.00 in
07:34 75.0 °F 67.3 °F 29.67 in SSW 6.0 mph 13.0 mph 77% 0.00 in
07:39 74.9 °F 67.2 °F 29.67 in SSW 3.0 mph 8.0 mph 77% 0.00 in
07:44 75.0 °F 67.3 °F 29.67 in SSW 3.0 mph 11.0 mph 77% 0.00 in
07:49 75.3 °F 67.6 °F 29.67 in SW 3.0 mph 6.0 mph 77% 0.00 in
07:54 75.4 °F 67.7 °F 29.67 in SSW 3.0 mph 7.0 mph 77% 0.00 in
07:59 75.4 °F 67.7 °F 29.67 in SSW 6.0 mph 8.0 mph 77% 0.00 in
08:04 75.6 °F 67.5 °F 29.66 in SSE 1.0 mph 7.0 mph 76% 0.00 in
08:09 75.8 °F 67.7 °F 29.66 in SSW 4.0 mph 9.0 mph 76% 0.00 in
08:14 76.1 °F 67.6 °F 29.66 in SSW 4.0 mph 9.0 mph 75% 0.00 in
08:19 76.3 °F 67.4 °F 29.66 in SSW 4.0 mph 10.0 mph 74% 0.00 in
08:24 76.4 °F 67.5 °F 29.65 in SW 11.0 mph 13.0 mph 74% 0.00 in
08:29 76.4 °F 67.5 °F 29.65 in SSW 3.0 mph 11.0 mph 74% 0.00 in
08:34 76.5 °F 67.6 °F 29.65 in South 7.0 mph 12.0 mph 74% 0.00 in
08:39 76.2 °F 67.3 °F 29.65 in SSW 6.0 mph 12.0 mph 74% 0.00 in
08:44 76.7 °F 68.2 °F 29.65 in SSW 5.0 mph 11.0 mph 75% 0.00 in
08:49 77.0 °F 67.7 °F 29.65 in SW 5.0 mph 11.0 mph 73% 0.00 in
08:54 77.0 °F 67.7 °F 29.65 in SW 5.0 mph 12.0 mph 73% 0.00 in
08:59 77.2 °F 67.5 °F 29.64 in SSW 5.0 mph 12.0 mph 72% 0.00 in
09:04 77.1 °F 67.4 °F 29.64 in WSW 9.0 mph 14.0 mph 72% 0.00 in
09:09 77.5 °F 67.8 °F 29.64 in South 4.0 mph 11.0 mph 72% 0.00 in
09:14 77.6 °F 67.9 °F 29.63 in SSE 6.0 mph 14.0 mph 72% 0.00 in
09:19 77.1 °F 67.4 °F 29.63 in South 9.0 mph 12.0 mph 72% 0.00 in
09:24 76.6 °F 66.9 °F 29.63 in South 5.0 mph 15.0 mph 72% 0.00 in
09:29 76.5 °F 67.2 °F 29.63 in South 9.0 mph 10.0 mph 73% 0.00 in
09:34 76.3 °F 67.0 °F 29.63 in SSW 11.0 mph 14.0 mph 73% 0.00 in
09:39 76.3 °F 67.0 °F 29.63 in SSW 5.0 mph 14.0 mph 73% 0.00 in
09:44 76.2 °F 66.9 °F 29.63 in SSW 5.0 mph 11.0 mph 73% 0.00 in
09:49 76.3 °F 67.0 °F 29.62 in SSW 5.0 mph 10.0 mph 73% 0.00 in
09:54 76.5 °F 67.2 °F 29.62 in SSW 5.0 mph 11.0 mph 73% 0.00 in
09:59 76.8 °F 67.5 °F 29.61 in SSW 5.0 mph 11.0 mph 73% 0.00 in
10:04 76.9 °F 67.6 °F 29.61 in SW 5.0 mph 11.0 mph 73% 0.00 in
10:09 76.7 °F 67.0 °F 29.61 in SSW 4.0 mph 12.0 mph 72% 0.00 in
10:14 76.6 °F 67.3 °F 29.61 in SW 3.0 mph 12.0 mph 73% 0.00 in
10:19 76.7 °F 67.4 °F 29.61 in South 6.0 mph 7.0 mph 73% 0.00 in
10:24 76.4 °F 66.7 °F 29.61 in SSW 3.0 mph 13.0 mph 72% 0.00 in
10:29 76.1 °F 66.8 °F 29.61 in South 5.0 mph 11.0 mph 73% 0.00 in
10:34 75.8 °F 66.9 °F 29.61 in SW 4.0 mph 12.0 mph 74% 0.00 in
10:39 75.5 °F 67.4 °F 29.61 in SW 6.0 mph 12.0 mph 76% 0.00 in
10:44 74.9 °F 67.6 °F 29.61 in SW 6.0 mph 11.0 mph 78% 0.00 in
10:49 74.2 °F 67.3 °F 29.60 in SW 3.0 mph 12.0 mph 79% 0.00 in
10:54 73.7 °F 67.9 °F 29.60 in SW 5.0 mph 12.0 mph 82% 0.00 in
10:59 73.4 °F 67.9 °F 29.60 in SSW 2.0 mph 8.0 mph 83% 0.01 in
11:04 73.1 °F 67.6 °F 29.60 in SSW 5.0 mph 10.0 mph 83% 0.01 in
11:09 72.9 °F 67.8 °F 29.60 in SW 5.0 mph 11.0 mph 84% 0.01 in
11:14 72.8 °F 68.0 °F 29.60 in SW 6.0 mph 11.0 mph 85% 0.01 in
11:19 72.3 °F 67.5 °F 29.60 in SSW 7.0 mph 11.0 mph 85% 0.01 in
11:24 72.1 °F 67.7 °F 29.60 in South 4.0 mph 11.0 mph 86% 0.01 in
11:29 72.1 °F 67.7 °F 29.60 in SSW 2.0 mph 10.0 mph 86% 0.01 in
11:34 72.1 °F 68.0 °F 29.60 in SW 3.0 mph 8.0 mph 87% 0.01 in
11:39 72.3 °F 68.5 °F 29.59 in SW 4.0 mph 8.0 mph 88% 0.01 in
11:44 72.2 °F 68.4 °F 29.59 in SW 3.0 mph 8.0 mph 88% 0.01 in
11:49 72.4 °F 68.6 °F 29.58 in South 2.0 mph 6.0 mph 88% 0.01 in
11:54 72.7 °F 68.9 °F 29.58 in SW 1.0 mph 5.0 mph 88% 0.01 in
11:59 72.7 °F 68.9 °F 29.57 in SSW 3.0 mph 4.0 mph 88% 0.00 in
12:04 72.7 °F 68.6 °F 29.57 in SW 2.0 mph 5.0 mph 87% 0.00 in
12:09 72.8 °F 68.7 °F 29.57 in SSW 3.0 mph 8.0 mph 87% 0.01 in
12:14 72.9 °F 68.8 °F 29.57 in SSW 4.0 mph 8.0 mph 87% 0.01 in
12:19 73.0 °F 68.9 °F 29.57 in SSW 4.0 mph 8.0 mph 87% 0.01 in
12:24 73.3 °F 69.2 °F 29.57 in SSW 4.0 mph 8.0 mph 87% 0.01 in
12:29 73.6 °F 69.2 °F 29.58 in SW 5.0 mph 8.0 mph 86% 0.01 in
12:34 73.9 °F 69.8 °F 29.58 in SW 4.0 mph 8.0 mph 87% 0.01 in
12:39 73.5 °F 69.1 °F 29.58 in WSW 2.0 mph 8.0 mph 86% 0.01 in
12:44 73.5 °F 69.1 °F 29.58 in SW 1.0 mph 8.0 mph 86% 0.01 in
12:49 73.3 °F 68.9 °F 29.58 in SSW 1.0 mph 8.0 mph 86% 0.01 in
12:54 73.3 °F 68.9 °F 29.58 in SSE 2.0 mph 11.0 mph 86% 0.01 in
12:59 73.0 °F 68.6 °F 29.58 in SW 4.0 mph 10.0 mph 86% 0.01 in
13:04 73.0 °F 68.9 °F 29.58 in SSW 6.0 mph 9.0 mph 87% 0.01 in
13:09 73.1 °F 69.0 °F 29.58 in SW 5.0 mph 9.0 mph 87% 0.00 in
13:14 73.1 °F 69.0 °F 29.58 in SW 4.0 mph 9.0 mph 87% 0.01 in
13:19 72.9 °F 68.8 °F 29.58 in SW 3.0 mph 11.0 mph 87% 0.02 in
13:24 72.6 °F 68.8 °F 29.57 in SW 4.0 mph 11.0 mph 88% 0.03 in
13:29 72.6 °F 69.2 °F 29.56 in SSW 1.0 mph 7.0 mph 89% 0.04 in
13:34 72.9 °F 69.5 °F 29.56 in SW 2.0 mph 7.0 mph 89% 0.05 in
13:39 73.1 °F 69.7 °F 29.56 in SSW 3.0 mph 7.0 mph 89% 0.05 in
13:44 73.2 °F 69.8 °F 29.56 in SSW 3.0 mph 8.0 mph 89% 0.05 in
13:49 73.0 °F 69.6 °F 29.56 in SSW 4.0 mph 8.0 mph 89% 0.05 in
13:54 73.0 °F 69.6 °F 29.56 in Calm   5.0 mph 89% 0.06 in
13:59 72.9 °F 69.1 °F 29.55 in SW 5.0 mph 7.0 mph 88% 0.06 in
14:04 72.8 °F 69.7 °F 29.55 in SW 3.0 mph 9.0 mph 90% 0.06 in
14:09 72.9 °F 69.8 °F 29.54 in SSW 3.0 mph 9.0 mph 90% 0.06 in
14:14 72.7 °F 69.6 °F 29.54 in SSW 4.0 mph 8.0 mph 90% 0.06 in
14:19 72.6 °F 69.5 °F 29.54 in South 4.0 mph 8.0 mph 90% 0.06 in
14:24 72.4 °F 69.3 °F 29.54 in SSW 7.0 mph 9.0 mph 90% 0.05 in
14:29 72.1 °F 69.0 °F 29.54 in SSW 4.0 mph 10.0 mph 90% 0.05 in
14:34 72.4 °F 69.6 °F 29.54 in SSW 3.0 mph 8.0 mph 91% 0.04 in
14:39 72.3 °F 69.2 °F 29.54 in SW 4.0 mph 10.0 mph 90% 0.04 in
14:44 72.4 °F 69.3 °F 29.54 in SW 4.0 mph 10.0 mph 90% 0.04 in
14:49 72.3 °F 69.2 °F 29.54 in SW 4.0 mph 7.0 mph 90% 0.05 in
14:54 72.6 °F 69.8 °F 29.54 in SW 4.0 mph 7.0 mph 91% 0.04 in
14:59 73.2 °F 70.4 °F 29.54 in SE 3.0 mph 7.0 mph 91% 0.04 in
15:04 73.1 °F 70.0 °F 29.54 in South 4.0 mph 10.0 mph 90% 0.04 in
15:09 73.2 °F 69.8 °F 29.54 in South 5.0 mph 12.0 mph 89% 0.03 in
15:14 73.0 °F 69.2 °F 29.54 in SSW 5.0 mph 12.0 mph 88% 0.03 in
15:19 73.1 °F 69.7 °F 29.53 in South 3.0 mph 9.0 mph 89% 0.02 in
15:24 73.3 °F 69.9 °F 29.53 in SSW 6.0 mph 10.0 mph 89% 0.02 in
15:29 73.5 °F 69.7 °F 29.53 in SSW 3.0 mph 7.0 mph 88% 0.02 in
15:34 73.4 °F 69.6 °F 29.54 in WSW 3.0 mph 7.0 mph 88% 0.02 in
15:39 73.3 °F 69.5 °F 29.53 in SW 4.0 mph 9.0 mph 88% 0.02 in
15:44 73.4 °F 69.6 °F 29.53 in SW 4.0 mph 9.0 mph 88% 0.02 in
15:49 73.3 °F 69.5 °F 29.53 in SW 3.0 mph 8.0 mph 88% 0.01 in
15:54 72.9 °F 69.1 °F 29.53 in SW 4.0 mph 11.0 mph 88% 0.01 in
15:59 72.7 °F 69.3 °F 29.53 in SSW 4.0 mph 11.0 mph 89% 0.02 in
16:04 72.5 °F 69.4 °F 29.53 in SW 4.0 mph 9.0 mph 90% 0.02 in
16:09 72.3 °F 69.2 °F 29.53 in SW 3.0 mph 8.0 mph 90% 0.03 in
16:14 72.2 °F 69.1 °F 29.53 in SSW 1.0 mph 6.0 mph 90% 0.03 in
16:19 72.0 °F 69.2 °F 29.53 in SSE 3.0 mph 7.0 mph 91% 0.03 in
16:24 72.1 °F 69.3 °F 29.53 in SSW 4.0 mph 5.0 mph 91% 0.04 in
16:29 71.9 °F 69.1 °F 29.53 in WSW 3.0 mph 8.0 mph 91% 0.03 in
16:34 71.7 °F 68.9 °F 29.53 in SW 2.0 mph 8.0 mph 91% 0.04 in
16:39 71.5 °F 68.7 °F 29.53 in WSW 3.0 mph 9.0 mph 91% 0.04 in
16:44 71.6 °F 69.2 °F 29.52 in WSW 3.0 mph 9.0 mph 92% 0.05 in
16:49 71.6 °F 69.2 °F 29.52 in WSW 4.0 mph 9.0 mph 92% 0.05 in
16:54 71.8 °F 69.3 °F 29.52 in SW 4.0 mph 9.0 mph 92% 0.05 in
16:59 72.1 °F 69.6 °F 29.52 in WSW 2.0 mph 9.0 mph 92% 0.04 in
17:04 71.9 °F 69.4 °F 29.51 in SW 4.0 mph 11.0 mph 92% 0.04 in
17:09 71.7 °F 69.3 °F 29.51 in WSW 5.0 mph 11.0 mph 92% 0.03 in
17:14 71.6 °F 68.8 °F 29.51 in WSW 5.0 mph 12.0 mph 91% 0.03 in
17:19 71.6 °F 68.8 °F 29.51 in WSW 5.0 mph 12.0 mph 91% 0.03 in
17:24 71.4 °F 69.0 °F 29.51 in WSW 5.0 mph 10.0 mph 92% 0.02 in
17:29 71.4 °F 69.0 °F 29.51 in WSW 4.0 mph 10.0 mph 92% 0.02 in
17:34 71.3 °F 68.9 °F 29.51 in WSW 4.0 mph 11.0 mph 92% 0.01 in
17:39 71.3 °F 68.9 °F 29.51 in WSW 6.0 mph 12.0 mph 92% 0.01 in
17:44 71.3 °F 68.9 °F 29.51 in SW 4.0 mph 12.0 mph 92% 0.00 in
17:49 71.3 °F 68.9 °F 29.51 in SW 7.0 mph 13.0 mph 92% 0.00 in
17:54 71.3 °F 68.9 °F 29.51 in WSW 6.0 mph 11.0 mph 92% 0.00 in
17:59 71.5 °F 69.1 °F 29.51 in SSW 4.0 mph 12.0 mph 92% 0.00 in
18:04 71.6 °F 68.8 °F 29.51 in WSW 6.0 mph 15.0 mph 91% 0.00 in
18:09 71.6 °F 68.8 °F 29.50 in WSW 7.0 mph 15.0 mph 91% 0.00 in
18:14 71.6 °F 68.8 °F 29.50 in WSW 6.0 mph 13.0 mph 91% 0.00 in
18:19 71.6 °F 68.8 °F 29.50 in WSW 7.0 mph 13.0 mph 91% 0.00 in
18:24 71.4 °F 68.6 °F 29.51 in WSW 7.0 mph 17.0 mph 91% 0.00 in
18:29 71.3 °F 68.5 °F 29.51 in SW 7.0 mph 15.0 mph 91% 0.00 in
18:34 71.1 °F 68.3 °F 29.52 in West 6.0 mph 16.0 mph 91% 0.00 in
18:39 70.9 °F 68.1 °F 29.52 in WSW 6.0 mph 16.0 mph 91% 0.00 in
18:44 70.8 °F 68.0 °F 29.53 in WSW 13.0 mph 14.0 mph 91% 0.00 in
18:49 70.8 °F 68.0 °F 29.53 in WSW 7.0 mph 13.0 mph 91% 0.00 in
18:54 70.8 °F 68.0 °F 29.53 in WSW 11.0 mph 16.0 mph 91% 0.00 in
18:59 71.1 °F 68.3 °F 29.53 in NW 9.0 mph 10.0 mph 91% 0.00 in
19:04 71.1 °F 68.3 °F 29.53 in SSW 5.0 mph 17.0 mph 91% 0.00 in
19:09 71.0 °F 68.2 °F 29.54 in WSW 7.0 mph 17.0 mph 91% 0.00 in
19:14 70.9 °F 67.8 °F 29.53 in WSW 7.0 mph 14.0 mph 90% 0.00 in
19:19 71.0 °F 68.2 °F 29.53 in WSW 6.0 mph 13.0 mph 91% 0.00 in
19:24 71.0 °F 68.2 °F 29.54 in West 4.0 mph 12.0 mph 91% 0.00 in
19:29 70.9 °F 67.8 °F 29.54 in South 8.0 mph 12.0 mph 90% 0.00 in
19:34 70.8 °F 67.7 °F 29.54 in WSW 6.0 mph 12.0 mph 90% 0.00 in
19:39 70.8 °F 68.0 °F 29.54 in WSW 5.0 mph 12.0 mph 91% 0.00 in
19:44 70.8 °F 68.0 °F 29.54 in WSW 4.0 mph 9.0 mph 91% 0.00 in
19:49 70.8 °F 68.0 °F 29.55 in West 4.0 mph 9.0 mph 91% 0.00 in
19:54 70.7 °F 67.9 °F 29.55 in WNW 3.0 mph 9.0 mph 91% 0.00 in
19:59 70.6 °F 67.8 °F 29.55 in WSW 6.0 mph 11.0 mph 91% 0.00 in
20:04 70.6 °F 67.8 °F 29.55 in WSW 6.0 mph 11.0 mph 91% 0.00 in
20:09 70.6 °F 67.8 °F 29.55 in WSW 5.0 mph 10.0 mph 91% 0.00 in
20:14 70.6 °F 67.8 °F 29.55 in West 4.0 mph 11.0 mph 91% 0.00 in
20:19 70.4 °F 67.6 °F 29.54 in WSW 4.0 mph 12.0 mph 91% 0.00 in
20:24 70.2 °F 67.4 °F 29.55 in West 5.0 mph 11.0 mph 91% 0.00 in
20:29 70.2 °F 67.4 °F 29.55 in WNW 4.0 mph 12.0 mph 91% 0.00 in
20:34 70.2 °F 67.4 °F 29.55 in WSW 5.0 mph 12.0 mph 91% 0.00 in
20:39 70.1 °F 67.3 °F 29.55 in West 5.0 mph 11.0 mph 91% 0.00 in
20:44 70.1 °F 67.3 °F 29.55 in WSW 4.0 mph 10.0 mph 91% 0.00 in
20:49 70.1 °F 67.3 °F 29.55 in WSW 1.0 mph 8.0 mph 91% 0.00 in
20:54 69.9 °F 67.2 °F 29.55 in West 3.0 mph 8.0 mph 91% 0.00 in
20:59 69.9 °F 67.2 °F 29.55 in WSW 3.0 mph 9.0 mph 91% 0.00 in
21:04 69.8 °F 67.1 °F 29.55 in WSW 5.0 mph 9.0 mph 91% 0.00 in
21:09 69.7 °F 67.3 °F 29.55 in WSW 6.0 mph 11.0 mph 92% 0.00 in
21:14 69.6 °F 66.9 °F 29.56 in WSW 5.0 mph 10.0 mph 91% 0.00 in
21:19 69.5 °F 67.1 °F 29.56 in South 4.0 mph 13.0 mph 92% 0.00 in
21:24 69.5 °F 67.1 °F 29.56 in WSW 4.0 mph 11.0 mph 92% 0.00 in
21:29 69.5 °F 67.1 °F 29.57 in SW 15.0 mph 15.0 mph 92% 0.00 in
21:34 69.4 °F 67.0 °F 29.57 in WSW 6.0 mph 15.0 mph 92% 0.00 in
21:39 69.3 °F 66.9 °F 29.58 in West 6.0 mph 15.0 mph 92% 0.00 in
21:44 69.4 °F 67.0 °F 29.58 in West 5.0 mph 13.0 mph 92% 0.00 in
21:49 69.5 °F 67.1 °F 29.58 in West 4.0 mph 11.0 mph 92% 0.00 in
21:54 69.5 °F 67.1 °F 29.58 in West 4.0 mph 7.0 mph 92% 0.00 in
21:59 69.5 °F 67.1 °F 29.58 in West 3.0 mph 7.0 mph 92% 0.00 in
22:04 69.5 °F 67.1 °F 29.58 in WSW 4.0 mph 9.0 mph 92% 0.00 in
22:09 69.4 °F 67.0 °F 29.58 in WSW 4.0 mph 9.0 mph 92% 0.00 in
22:14 69.4 °F 67.0 °F 29.58 in WSW 6.0 mph 8.0 mph 92% 0.00 in
22:19 69.3 °F 66.9 °F 29.58 in WSW 5.0 mph 8.0 mph 92% 0.00 in
22:24 69.2 °F 66.8 °F 29.58 in WSW 3.0 mph 6.0 mph 92% 0.00 in
22:29 69.2 °F 66.8 °F 29.58 in SW 3.0 mph 7.0 mph 92% 0.00 in
22:34 69.2 °F 66.8 °F 29.58 in WSW 3.0 mph 8.0 mph 92% 0.00 in
22:39 69.1 °F 66.7 °F 29.58 in WSW 2.0 mph 8.0 mph 92% 0.00 in
22:44 69.0 °F 66.6 °F 29.58 in WSW 2.0 mph 5.0 mph 92% 0.00 in
22:49 69.0 °F 66.6 °F 29.58 in SW 2.0 mph 5.0 mph 92% 0.00 in
22:54 69.1 °F 66.7 °F 29.58 in WSW 3.0 mph 4.0 mph 92% 0.00 in
22:59 69.1 °F 67.0 °F 29.58 in SW 4.0 mph 5.0 mph 93% 0.00 in
23:04 69.0 °F 66.9 °F 29.58 in SW 4.0 mph 4.0 mph 93% 0.00 in
23:09 69.0 °F 66.9 °F 29.58 in WSW 3.0 mph 6.0 mph 93% 0.00 in
23:14 69.0 °F 66.6 °F 29.58 in WSW 3.0 mph 7.0 mph 92% 0.00 in
23:19 69.0 °F 66.9 °F 29.58 in WSW 3.0 mph 7.0 mph 93% 0.00 in
23:24 69.0 °F 66.9 °F 29.59 in WSW 3.0 mph 7.0 mph 93% 0.00 in
23:29 68.9 °F 66.8 °F 29.58 in WSW 3.0 mph 7.0 mph 93% 0.00 in
23:34 68.9 °F 66.8 °F 29.58 in West 3.0 mph 7.0 mph 93% 0.00 in
23:39 68.8 °F 66.7 °F 29.58 in West 2.0 mph 4.0 mph 93% 0.00 in
23:44 68.8 °F 66.7 °F 29.58 in WSW 2.0 mph 5.0 mph 93% 0.00 in
23:49 68.8 °F 66.7 °F 29.58 in WSW 3.0 mph 4.0 mph 93% 0.00 in
23:54 68.8 °F 66.7 °F 29.58 in SW 4.0 mph 5.0 mph 93% 0.00 in
23:59 68.8 °F 66.7 °F 29.59 in WSW 1.0 mph 6.0 mph 93% 0.00 in
Buffalo, New York, USA
Compliments of Weather Underground - 2.5 mb